Location: Coupvray
(48.8929°N, 2.7967°E)
Time: 20:49:05
(UTC+00:00)

Cosmos 1241 Rocket - Pass Details

Date: 01 November 2020
Orbit: 929 x 1018 km, 65.8° (Epoch: 30 November)

Event Time Altitude Azimuth Distance (km) Brightness Sun altitude
Rises 17:18:12 0° 251° (WSW) 3,652 9.8 -8.8°
Reaches altitude 10° 17:21:00 10° 261° (W) 2,722 8.5 -9.2°
Maximum altitude 17:26:45 34° 325° (NW) 1,566 5.8 -10.1°
Drops below altitude 10° 17:32:40 10° 30° (NNE) 2,786 6.5 -11.1°
Enters shadow 17:34:36 - 37° (NE) 3,423 6.9 -11.4°
